Theta_e
314 315 317 318 320 322 322 322 322 322 321 323 324 323 322 322 322 323 323 322 322 322
313 315 316 316 318 320 322 322 322 322 320 323 320 319 319 319 319 319 319 319 318 320
312 315 316 315 315 316 319 321 320 320 320 320 319 319 319 318 318 317 317 314 311 309
312 313 315 314 316 316 317 317 319 319 316 311 309 310 312 313 316 313 310 309 307 305
312 312 312 313 313 313 310 308 309 309 308 308 309 310 310 307 306 305 303 303 302 300
309 311 313 307 306 305 304 304 305 305 306 307 308 309 307 305 304 301 300 299 298 298
308 308 305 304 302 302 302 301 302 303 304 304 306 308 306 305 303 302 301 300 299 298
309 306 304 302 301 301 299 299 300 299 300 300 302 306 306 304 302 300 297 297 298 298
310 306 303 301 299 298 298 297 297 296 297 297 300 302 303 301 298 296 294 293 293 294
307 306 303 300 298 297 296 296 295 295 295 295 297 298 298 297 295 293 291 291 291 292
303 303 302 299 298 296 296 295 294 294 294 294 296 297 297 296 294 293 293 292 291 291
299 301 303 299 298 297 295 293 293 293 293 293 295 296 295 294 294 293 293 293 294 293
298 298 300 298 296 295 295 293 293 292 291 294 294 296 296 295 294 293 293 294 294 295
296 297 298 299 298 295 292 291 291 291 292 293 294 295 295 296 295 293 293 292 292 294
Wind_Speed
7 5 6 7 8 7 6 6 6 5 4 7 5 3 3 1 2 2 2 4 3 3
7 7 8 10 8 7 9 7 7 5 3 3 4 5 5 3 3 3 2 4 4 4
7 9 10 9 10 11 11 9 7 5 4 3 4 5 5 3 2 3 3 3 7 7
11 11 10 10 10 11 11 10 6 3 6 7 6 6 5 4 1 5 7 8 10 10
12 14 12 12 14 13 11 10 10 8 8 7 8 7 8 10 10 10 10 10 11 10
14 16 13 12 11 13 13 12 12 11 9 8 8 8 9 10 12 12 13 11 10 10
14 13 12 12 13 14 13 14 14 13 12 12 9 7 7 11 10 9 12 12 10 8
11 9 10 11 11 11 13 12 12 14 14 14 11 7 7 8 9 9 10 11 10 8
9 9 10 9 10 10 11 11 12 13 12 13 9 19 18 13 10 11 11 8 7 5
12 9 9 8 9 11 11 10 13 12 12 12 11 20 19 18 9 8 9 8 7 7
11 10 8 8 10 10 9 11 10 11 11 10 11 16 15 15 9 8 8 8 7 5
11 9 7 9 9 8 8 9 9 8 10 10 11 16 12 8 6 6 6 5 4 7
9 9 10 9 8 7 8 8 7 8 9 12 9 15 14 8 4 6 5 6 7 11
9 8 7 6 6 8 7 7 6 7 7 9 10 10 14 13 6 6 5 5 5 6
Wind_Direction
339 329 308 307 306 292 273 269 268 270 288 302 309 313 318 333 350 47 92 131 136 142
332 330 323 319 308 307 298 294 288 271 282 314 344 342 348 352 36 60 75 102 95 107
327 327 324 316 318 318 309 308 300 295 287 342 358 5 354 345 36 80 60 70 84 76
337 327 318 320 320 318 318 313 334 333 25 31 39 22 25 359 334 96 91 77 77 70
347 339 332 328 349 355 20 21 33 55 59 41 27 20 65 67 61 58 62 71 81 76
357 348 359 32 25 27 24 27 31 35 37 39 45 47 43 62 63 76 78 61 63 66
10 27 33 35 37 39 33 30 26 25 21 16 14 45 80 84 90 84 75 80 70 66
26 32 54 40 39 39 40 33 28 31 20 16 7 2 46 62 67 71 75 60 59 43
9 50 40 39 50 50 44 39 35 31 25 21 21 39 53 61 65 59 56 55 50 47
16 42 51 41 38 37 33 33 35 31 28 23 27 43 53 59 58 62 61 51 42 48
15 18 69 46 44 38 32 32 29 29 29 34 38 45 51 55 55 59 57 50 52 48
18 21 65 58 43 34 34 34 32 28 26 33 32 32 41 49 51 53 53 34 53 51
31 28 53 58 48 38 38 35 27 29 24 27 29 22 21 24 29 42 42 46 30 22
28 33 35 45 48 50 42 35 22 23 19 27 19 18 21 20 37 49 48 38 13 8